Regional Weather Roundup
Issued by NWS Bismarck, ND

Home | Current Version | Previous Version | Text Only | Print | Product List | Glossary On
Versions: 1 2 3 4 5 6 7 8 9 10 11 12 13 14 15 16 17 18 19 20 21 22 23 24 25 26 27 28 29 30 31 32 33 34 35 36 37 38 39 40 41 42 43 44 45 46 47 48 49 50
000
ASUS43 KBIS 251110
RWRBIS

NWR BROADCAST TEXT
NATIONAL WEATHER SERVICE BISMARCK ND
600 AM CDT THU AUG 25 2016

NOTE: "FAIR" INDICATES FEW OR NO CLOUDS BELOW 12,000 FEET WITH NO
SIGNIFICANT WEATHER AND/OR OBSTRUCTIONS TO VISIBILITY.


CITY           SKY/WX    TMP DP  RH WIND       PRES   REMARKS
WILLISTON      CLOUDY    54  46  74 NW8       30.18R
MINOT          LGT RAIN  53  52  96 NW20      30.08R FOG
MINOT AFB      CLOUDY    52  52 100 NW18      30.07R
BISMARCK       CLOUDY    57  48  72 NW14G23   30.11R
DICKINSON      PTCLDY    49  45  86 W12       30.15S
GARRISON         N/A     53  50  89 NW14      30.09S
HETTINGER ARPT CLEAR     45  43  93 W9        30.21R
JAMESTOWN      CLOUDY    56  51  84 W12       30.03R
CARRINGTON     CLOUDY    55  52  88 NW16G22   30.03S
HAZEN          PTSUNNY   55  48  76 NW13G20   30.13R
LINTON         CLOUDY    55  50  82 W13G18    30.14R
MANDAN         CLOUDY    54  48  82 W12       30.12R
OAKES            N/A    N/A N/A N/A MISG        N/A
STANLEY        CLOUDY    50  50 100 NW8       30.16R
WATFORD CITY   CLOUDY    50  48  93 NW13      30.17S
$$

CITY           SKY/WX    TMP DP  RH WIND       PRES   REMARKS
GRAND FORKS    CLOUDY    60  54  80 W12       29.91R
GRAND FORKS AF CLOUDY    59  53  80 W15       29.92S
DEVILS LAKE    CLOUDY    56  53  90 NW18      29.98R
FARGO          MOCLDY    56  51  84 SW10      29.99R
CAVALIER       CLOUDY    57  55  94 NW15G22   29.89R
GRAFTON        CLOUDY    59  55  88 W15       29.91S
GWINNER        PTSUNNY   54  52  94 W8        30.04S
LANGDON        CLOUDY    55  55 100 NW14      29.94R
ROLLA          CLOUDY    52  52 100 N14G21    30.02R
$$

CITY           SKY/WX    TMP DP  RH WIND       PRES   REMARKS
ABERDEEN       CLEAR     51  47  86 SW6       30.11R
MOBRIDGE       CLEAR     54  47  77 NW12      30.13R
BUFFALO          N/A     50  46  86 NW15      30.17S
RAPID CITY     CLOUDY    55  40  56 N14       30.23S
GLASGOW        MOCLDY    50  43  77 W10       30.22F
SIDNEY         MOCLDY    53  46  77 NW14      30.19S
WOLF POINT     PTCLDY    52  49  89 CALM      30.22S
GLENDIVE       CLOUDY    51  45  79 NW9       30.23S
MILES CITY     CLOUDY    49  44  83 W7        30.26F
BAKER          MOCLDY    47  42  83 W12       30.24S
$$

CITY           SKY/WX    TMP DP  RH WIND       PRES   REMARKS
BILLINGS       CLOUDY    49  39  68 SW8       30.30S
GREAT FALLS    CLEAR     40  36  86 SW10      30.29F
REGINA         PTCLDY    41  41 100 W3        30.13F
ESTEVAN        CLOUDY    52  48  87 W9        30.14S
$$





USA.gov is the U.S. government's official web portal to all federal, state and local government web resources and services.